C/2023 T3 ( Fuls )

Japanese version
Home page
Updated on May 21, 2024

---------------------------------------------------------------------

* Profile

Discovery Date October 15, 2023
Magnitude 18.5 mag
Discoverer David Carson Fuls (Mt. Lemmon Survey)

* Pictures

* Orbital Elements

Epoch 2024 Mar. 31.0 TT = JDT 2460400.5
T 2025 Jan. 25.38129 TT                                 Rudenko
q   3.5483439            (2000.0)            P               Q
z  +0.0014109      Peri.  302.84901     -0.90308721     +0.09897178
 +/-0.0000135      Node   246.00152     -0.02301836     -0.98283872
e   0.9949935      Incl.   27.22204     -0.42883988     -0.15566838
>From 452 observations 2023 Sept. 9-2024 May 9, mean residual 0".4.

* Finding Charts

* Magnitudes Graph

        m1 = 7.7 + 5 log d + 10.0 log r

---------------------------------------------------------------------

The orbital elements are published on M.P.E.C. 2024-J304.
The charts are made with StellaNavigator Ver.11 (AstroArts).
The magnitudes graphs are made with Comet for Windows.

---------------------------------------------------------------------

Copyright(C) Seiichi Yoshida (comet@aerith.net). All rights reserved.